Time,TemperatureF,DewpointF,PressureIn,WindDirection,WindDirectionDegrees,WindSpeedMPH,WindSpeedGustMPH,Humidity,HourlyPrecipIn,Conditions,Clouds,dailyrainin,SoftwareType,DateUTC
2013-01-03 00:09:00,22.1,3.0,30.08,SSE,165,0.0,0.0,43,0.00,CLR,,0.00,WeatherDisplay:10.37,2013-01-03 05:09:00,
2013-01-03 00:19:00,22.3,3.6,30.08,SSE,148,0.0,0.0,44,0.00,CLR,,0.00,WeatherDisplay:10.37,2013-01-03 05:19:00,
2013-01-03 00:29:00,22.3,3.6,30.08,ESE,104,0.0,0.0,44,0.00,CLR,,0.00,WeatherDisplay:10.37,2013-01-03 05:29:00,
2013-01-03 00:39:00,22.1,3.5,30.08,ESE,104,0.0,4.0,44,0.00,CLR,,0.00,WeatherDisplay:10.37,2013-01-03 05:39:00,
2013-01-03 00:49:00,22.1,3.5,30.08,NE,53,0.0,0.0,44,0.00,CLR,,0.00,WeatherDisplay:10.37,2013-01-03 05:49:00,
2013-01-03 00:59:00,22.1,4.0,30.08,ENE,59,0.0,0.0,45,0.00,CLR,,0.00,WeatherDisplay:10.37,2013-01-03 05:59:00,
2013-01-03 01:09:00,22.6,4.0,30.08,ENE,59,0.0,0.0,44,0.00,CLR,,0.00,WeatherDisplay:10.37,2013-01-03 06:09:00,
2013-01-03 01:19:00,23.2,4.5,30.08,South,169,0.0,0.0,44,0.00,CLR,,0.00,WeatherDisplay:10.37,2013-01-03 06:19:00,
2013-01-03 01:29:00,23.1,3.9,30.08,NE,46,0.0,4.0,43,0.00,CLR,,0.00,WeatherDisplay:10.37,2013-01-03 06:29:00,
2013-01-03 01:39:00,22.5,3.3,30.08,NE,40,0.0,0.0,43,0.00,CLR,,0.00,WeatherDisplay:10.37,2013-01-03 06:39:00,
2013-01-03 01:49:00,22.6,3.4,30.08,ENE,58,0.0,0.0,43,0.00,CLR,,0.00,WeatherDisplay:10.37,2013-01-03 06:49:00,
2013-01-03 01:59:00,23.0,3.8,30.08,NE,46,0.0,0.0,43,0.00,CLR,,0.00,WeatherDisplay:10.37,2013-01-03 06:59:00,
2013-01-03 02:09:00,23.2,4.5,30.08,NE,46,0.0,0.0,44,0.00,CLR,,0.00,WeatherDisplay:10.37,2013-01-03 07:09:00,
2013-01-03 02:19:00,23.7,4.5,30.08,SSE,162,0.0,0.0,43,0.00,CLR,,0.00,WeatherDisplay:10.37,2013-01-03 07:19:00,
2013-01-03 02:29:00,23.5,4.3,30.08,NE,38,0.0,0.0,43,0.00,CLR,,0.00,WeatherDisplay:10.37,2013-01-03 07:29:00,
2013-01-03 02:39:00,23.3,4.1,30.08,NNE,26,0.0,0.0,43,0.00,CLR,,0.00,WeatherDisplay:10.37,2013-01-03 07:39:00,
2013-01-03 02:49:00,23.4,4.1,30.08,East,93,0.0,0.0,43,0.00,CLR,,0.00,WeatherDisplay:10.37,2013-01-03 07:49:00,
2013-01-03 02:59:00,23.4,4.2,30.08,ESE,116,0.0,0.0,43,0.00,CLR,,0.00,WeatherDisplay:10.37,2013-01-03 07:59:00,
2013-01-03 03:09:00,23.2,4.0,30.08,South,184,0.0,0.0,43,0.00,CLR,,0.00,WeatherDisplay:10.37,2013-01-03 08:09:00,
2013-01-03 03:19:00,22.6,3.5,30.08,South,170,0.0,0.0,43,0.00,CLR,,0.00,WeatherDisplay:10.37,2013-01-03 08:19:00,
2013-01-03 03:29:00,22.5,3.8,30.08,East,101,0.0,0.0,44,0.00,CLR,,0.00,WeatherDisplay:10.37,2013-01-03 08:29:00,
2013-01-03 03:39:00,22.6,4.0,30.08,SSE,155,0.0,0.0,44,0.00,CLR,,0.00,WeatherDisplay:10.37,2013-01-03 08:39:00,
2013-01-03 03:49:00,22.8,4.1,30.08,SSE,159,0.0,0.0,44,0.00,CLR,,0.00,WeatherDisplay:10.37,2013-01-03 08:49:00,
2013-01-03 03:59:00,22.3,3.6,30.08,East,93,0.0,0.0,44,0.00,CLR,,0.00,WeatherDisplay:10.37,2013-01-03 08:59:00,
2013-01-03 04:09:00,21.7,3.1,30.08,East,97,0.0,0.0,44,0.00,CLR,,0.00,WeatherDisplay:10.37,2013-01-03 09:09:00,
2013-01-03 04:19:00,21.9,3.3,30.08,East,97,0.0,0.0,44,0.00,CLR,,0.00,WeatherDisplay:10.37,2013-01-03 09:19:00,
2013-01-03 04:29:00,21.6,3.0,30.05,ESE,103,0.0,0.0,44,0.00,CLR,,0.00,WeatherDisplay:10.37,2013-01-03 09:29:00,
2013-01-03 04:39:00,21.7,3.6,30.08,ESE,112,2.0,4.0,45,0.00,CLR,,0.00,WeatherDisplay:10.37,2013-01-03 09:39:00,
2013-01-03 04:49:00,22.3,4.6,30.08,ESE,108,2.0,3.0,46,0.00,CLR,,0.00,WeatherDisplay:10.37,2013-01-03 09:49:00,
2013-01-03 04:59:00,22.1,4.4,30.08,ESE,106,0.0,3.0,46,0.00,CLR,,0.00,WeatherDisplay:10.37,2013-01-03 09:59:00,
2013-01-03 05:09:00,21.9,3.8,30.08,ESE,106,0.0,2.0,45,0.00,CLR,,0.00,WeatherDisplay:10.37,2013-01-03 10:09:00,
2013-01-03 05:19:00,21.6,3.5,30.08,ESE,105,0.0,3.0,45,0.00,CLR,,0.00,WeatherDisplay:10.37,2013-01-03 10:19:00,
2013-01-03 05:29:00,21.4,3.8,30.08,ESE,104,0.0,0.0,46,0.00,CLR,,0.00,WeatherDisplay:10.37,2013-01-03 10:29:00,
2013-01-03 05:39:00,21.2,3.6,30.08,ESE,104,0.0,0.0,46,0.00,CLR,,0.00,WeatherDisplay:10.37,2013-01-03 10:39:00,
2013-01-03 05:49:00,20.9,3.8,30.08,ESE,104,0.0,0.0,47,0.00,CLR,,0.00,WeatherDisplay:10.37,2013-01-03 10:49:00,
2013-01-03 05:59:00,20.5,2.9,30.08,ESE,104,0.0,0.0,46,0.00,CLR,,0.00,WeatherDisplay:10.37,2013-01-03 10:59:00,
2013-01-03 06:09:00,20.1,3.1,30.08,ESE,104,0.0,0.0,47,0.00,CLR,,0.00,WeatherDisplay:10.37,2013-01-03 11:09:00,
2013-01-03 06:19:00,19.8,2.8,30.08,ESE,104,0.0,0.0,47,0.00,CLR,,0.00,WeatherDisplay:10.37,2013-01-03 11:19:00,
2013-01-03 06:29:00,19.6,2.6,30.08,ESE,104,0.0,0.0,47,0.00,CLR,,0.00,WeatherDisplay:10.37,2013-01-03 11:29:00,
2013-01-03 06:39:00,19.6,3.0,30.08,East,100,0.0,0.0,48,0.00,CLR,,0.00,WeatherDisplay:10.37,2013-01-03 11:39:00,
2013-01-03 06:49:00,19.8,3.2,30.08,East,95,2.0,4.0,48,0.00,CLR,,0.00,WeatherDisplay:10.37,2013-01-03 11:49:00,
2013-01-03 06:59:00,19.6,3.1,30.08,ESE,111,3.0,4.0,48,0.00,CLR,,0.00,WeatherDisplay:10.37,2013-01-03 11:59:00,
2013-01-03 07:09:00,19.4,2.9,30.08,ESE,112,0.0,4.0,48,0.00,CLR,,0.00,WeatherDisplay:10.37,2013-01-03 12:09:00,
2013-01-03 07:19:00,19.6,3.5,30.08,ESE,114,0.0,0.0,49,0.00,CLR,,0.00,WeatherDisplay:10.37,2013-01-03 12:19:00,
2013-01-03 07:29:00,19.2,3.2,30.08,ESE,105,3.0,5.0,49,0.00,CLR,,0.00,WeatherDisplay:10.37,2013-01-03 12:29:00,
2013-01-03 07:39:00,19.9,4.3,30.08,ESE,109,3.0,5.0,50,0.00,CLR,,0.00,WeatherDisplay:10.37,2013-01-03 12:39:00,
2013-01-03 07:49:00,20.1,4.0,30.08,ESE,109,3.0,4.0,49,0.00,CLR,,0.00,WeatherDisplay:10.37,2013-01-03 12:49:00,
2013-01-03 07:59:00,19.9,3.8,30.08,ESE,110,3.0,5.0,49,0.00,CLR,,0.00,WeatherDisplay:10.37,2013-01-03 12:59:00,
2013-01-03 08:09:00,20.1,4.0,30.08,ESE,104,3.0,4.0,49,0.00,CLR,,0.00,WeatherDisplay:10.37,2013-01-03 13:09:00,
2013-01-03 08:19:00,20.1,4.0,30.08,ESE,105,0.0,3.0,49,0.00,CLR,,0.00,WeatherDisplay:10.37,2013-01-03 13:19:00,
2013-01-03 08:29:00,20.5,4.3,30.11,ESE,104,0.0,3.0,49,0.00,CLR,,0.00,WeatherDisplay:10.37,2013-01-03 13:29:00,
2013-01-03 08:39:00,21.3,5.6,30.11,ESE,104,0.0,0.0,50,0.00,CLR,,0.00,WeatherDisplay:10.37,2013-01-03 13:39:00,
2013-01-03 08:49:00,23.2,7.8,30.11,ESE,104,0.0,0.0,51,0.00,CLR,,0.00,WeatherDisplay:10.37,2013-01-03 13:49:00,
2013-01-03 08:59:00,25.0,9.8,30.11,ESE,122,0.0,0.0,52,0.00,CLR,,0.00,WeatherDisplay:10.37,2013-01-03 13:59:00,
2013-01-03 09:09:00,25.3,9.7,30.11,SSE,155,0.0,0.0,51,0.00,CLR,,0.00,WeatherDisplay:10.37,2013-01-03 14:09:00,
2013-01-03 09:19:00,26.5,10.7,30.11,SSE,155,0.0,0.0,51,0.00,CLR,,0.00,WeatherDisplay:10.37,2013-01-03 14:19:00,
2013-01-03 09:29:00,27.3,11.1,30.11,SSE,155,0.0,0.0,50,0.00,CLR,,0.00,WeatherDisplay:10.37,2013-01-03 14:29:00,
2013-01-03 09:39:00,27.4,10.3,30.11,WSW,249,0.0,3.0,48,0.00,CLR,,0.00,WeatherDisplay:10.37,2013-01-03 14:39:00,
2013-01-03 09:49:00,27.0,7.9,30.11,West,270,0.0,3.0,44,0.00,CLR,,0.00,WeatherDisplay:10.37,2013-01-03 14:49:00,
2013-01-03 09:59:00,27.1,7.0,30.11,West,268,3.0,4.0,42,0.00,CLR,,0.00,WeatherDisplay:10.37,2013-01-03 14:59:00,
2013-01-03 10:09:00,27.5,6.8,30.11,West,261,0.0,4.0,41,0.00,CLR,,0.00,WeatherDisplay:10.37,2013-01-03 15:09:00,
2013-01-03 10:19:00,28.4,7.7,30.11,West,261,2.0,4.0,41,0.00,CLR,,0.00,WeatherDisplay:10.37,2013-01-03 15:19:00,
2013-01-03 10:29:00,29.0,6.5,30.11,West,280,3.0,5.0,38,0.00,CLR,,0.00,WeatherDisplay:10.37,2013-01-03 15:29:00,
2013-01-03 10:39:00,29.3,5.6,30.11,West,264,3.0,6.0,36,0.00,CLR,,0.00,WeatherDisplay:10.37,2013-01-03 15:39:00,
2013-01-03 10:49:00,29.8,5.4,30.11,WSW,253,0.0,4.0,35,0.00,CLR,,0.00,WeatherDisplay:10.37,2013-01-03 15:49:00,
2013-01-03 10:59:00,30.2,5.2,30.11,West,262,5.0,6.0,34,0.00,CLR,,0.00,WeatherDisplay:10.37,2013-01-03 15:59:00,
2013-01-03 11:09:00,30.6,5.5,30.08,West,280,3.0,6.0,34,0.00,CLR,,0.00,WeatherDisplay:10.37,2013-01-03 16:09:00,
2013-01-03 11:19:00,30.6,5.5,30.08,West,274,0.0,4.0,34,0.00,CLR,,0.00,WeatherDisplay:10.37,2013-01-03 16:19:00,
2013-01-03 11:29:00,30.7,5.6,30.08,West,279,2.0,6.0,34,0.00,CLR,,0.00,WeatherDisplay:10.37,2013-01-03 16:29:00,
2013-01-03 11:39:00,30.9,5.8,30.08,WNW,302,3.0,6.0,34,0.00,CLR,,0.00,WeatherDisplay:10.37,2013-01-03 16:39:00,
2013-01-03 11:49:00,31.1,6.0,30.08,WNW,283,0.0,6.0,34,0.00,CLR,,0.00,WeatherDisplay:10.37,2013-01-03 16:49:00,
2013-01-03 11:59:00,31.6,6.4,30.08,WNW,296,0.0,5.0,34,0.00,CLR,,0.00,WeatherDisplay:10.37,2013-01-03 16:59:00,
2013-01-03 12:09:00,31.8,5.3,30.05,WSW,249,0.0,6.0,32,0.00,CLR,,0.00,WeatherDisplay:10.37,2013-01-03 17:09:00,
2013-01-03 12:19:00,32.4,5.7,30.05,WSW,239,2.0,6.0,32,0.00,CLR,,0.00,WeatherDisplay:10.37,2013-01-03 17:19:00,
2013-01-03 12:29:00,33.2,5.8,30.05,WSW,247,3.0,6.0,31,0.00,CLR,,0.00,WeatherDisplay:10.37,2013-01-03 17:29:00,
2013-01-03 12:39:00,33.6,5.4,30.02,West,262,3.0,8.0,30,0.00,CLR,,0.00,WeatherDisplay:10.37,2013-01-03 17:39:00,
2013-01-03 12:49:00,34.2,5.9,30.02,West,264,3.0,8.0,30,0.00,CLR,,0.00,WeatherDisplay:10.37,2013-01-03 17:49:00,
2013-01-03 12:59:00,34.3,6.1,30.02,West,265,5.0,8.0,30,0.00,CLR,,0.00,WeatherDisplay:10.37,2013-01-03 17:59:00,
2013-01-03 13:09:00,34.7,4.1,30.02,SW,229,3.0,6.0,27,0.00,CLR,,0.00,WeatherDisplay:10.37,2013-01-03 18:09:00,
2013-01-03 13:19:00,35.2,6.8,30.02,WSW,249,5.0,8.0,30,0.00,CLR,,0.00,WeatherDisplay:10.37,2013-01-03 18:19:00,
2013-01-03 13:29:00,35.0,5.1,30.02,West,269,6.0,8.0,28,0.00,CLR,,0.00,WeatherDisplay:10.37,2013-01-03 18:29:00,
2013-01-03 13:39:00,35.1,6.7,30.02,West,280,6.0,12.0,30,0.00,CLR,,0.00,WeatherDisplay:10.37,2013-01-03 18:39:00,
2013-01-03 13:49:00,35.1,5.9,30.02,WNW,282,5.0,10.0,29,0.00,CLR,,0.00,WeatherDisplay:10.37,2013-01-03 18:49:00,
2013-01-03 13:59:00,35.3,6.9,30.02,WNW,299,0.0,12.0,30,0.00,CLR,,0.00,WeatherDisplay:10.37,2013-01-03 18:59:00,
2013-01-03 14:09:00,35.8,5.0,30.02,West,281,3.0,8.0,27,0.00,CLR,,0.00,WeatherDisplay:10.37,2013-01-03 19:09:00,
2013-01-03 14:59:00,36.5,3.1,30.02,SSW,206,3.0,7.0,24,0.00,CLR,,0.00,WeatherDisplay:10.37,2013-01-03 19:59:00,
2013-01-03 15:09:00,36.5,3.1,30.02,West,262,2.0,6.0,24,0.00,CLR,,0.00,WeatherDisplay:10.37,2013-01-03 20:09:00,
2013-01-03 15:19:00,36.5,3.1,30.02,West,275,0.0,6.0,24,0.00,CLR,,0.00,WeatherDisplay:10.37,2013-01-03 20:19:00,
2013-01-03 15:29:00,36.9,3.4,30.02,SW,224,3.0,6.0,24,0.00,CLR,,0.00,WeatherDisplay:10.37,2013-01-03 20:29:00,
2013-01-03 15:39:00,36.7,3.2,30.02,SW,214,5.0,6.0,24,0.00,CLR,,0.00,WeatherDisplay:10.37,2013-01-03 20:39:00,
2013-01-03 15:49:00,36.9,3.4,30.02,SSW,205,2.0,6.0,24,0.00,CLR,,0.00,WeatherDisplay:10.37,2013-01-03 20:49:00,
2013-01-03 15:59:00,37.0,1.6,30.02,WSW,242,1.0,6.0,22,0.00,CLR,,0.00,WeatherDisplay:10.37,2013-01-03 20:59:00,
2013-01-03 16:09:00,36.9,3.4,30.02,WSW,242,2.0,5.0,24,0.00,CLR,,0.00,WeatherDisplay:10.37,2013-01-03 21:09:00,
2013-01-03 16:19:00,36.5,1.2,30.02,WSW,250,2.0,6.0,22,0.00,CLR,,0.00,WeatherDisplay:10.37,2013-01-03 21:19:00,
2013-01-03 16:29:00,36.0,2.6,30.02,WSW,247,0.0,4.0,24,0.00,CLR,,0.00,WeatherDisplay:10.37,2013-01-03 21:29:00,
2013-01-03 16:39:00,35.8,2.4,30.02,South,191,0.0,4.0,24,0.00,CLR,,0.00,WeatherDisplay:10.37,2013-01-03 21:39:00,
2013-01-03 16:49:00,35.2,2.9,30.02,South,174,0.0,4.0,25,0.00,CLR,,0.00,WeatherDisplay:10.37,2013-01-03 21:49:00,
2013-01-03 16:59:00,34.1,1.9,30.02,SSE,156,2.0,3.0,25,0.00,CLR,,0.00,WeatherDisplay:10.37,2013-01-03 21:59:00,
2013-01-03 17:09:00,33.6,1.5,30.02,SE,137,2.0,4.0,25,0.00,CLR,,0.00,WeatherDisplay:10.37,2013-01-03 22:09:00,
2013-01-03 17:19:00,32.9,3.3,30.02,ESE,123,0.0,4.0,28,0.00,CLR,,0.00,WeatherDisplay:10.37,2013-01-03 22:19:00,
2013-01-03 17:29:00,31.8,3.9,30.02,SE,125,2.0,3.0,30,0.00,CLR,,0.00,WeatherDisplay:10.37,2013-01-03 22:29:00,
2013-01-03 17:39:00,32.0,4.0,30.02,ESE,120,0.0,5.0,30,0.00,CLR,,0.00,WeatherDisplay:10.37,2013-01-03 22:39:00,
2013-01-03 17:49:00,31.3,3.4,30.02,ESE,109,0.0,3.0,30,0.00,CLR,,0.00,WeatherDisplay:10.37,2013-01-03 22:49:00,
2013-01-03 17:59:00,31.6,3.7,30.02,SSE,154,2.0,4.0,30,0.00,CLR,,0.00,WeatherDisplay:10.37,2013-01-03 22:59:00,
2013-01-03 18:09:00,32.2,4.2,30.02,SE,142,0.0,4.0,30,0.00,CLR,,0.00,WeatherDisplay:10.37,2013-01-03 23:09:00,
2013-01-03 18:19:00,31.3,3.4,30.02,SE,133,0.0,3.0,30,0.00,CLR,,0.00,WeatherDisplay:10.37,2013-01-03 23:19:00,
2013-01-03 18:29:00,30.7,3.6,30.02,SSW,200,0.0,0.0,31,0.00,CLR,,0.00,WeatherDisplay:10.37,2013-01-03 23:29:00,
2013-01-03 18:39:00,30.7,3.6,30.02,WSW,258,0.0,4.0,31,0.00,CLR,,0.00,WeatherDisplay:10.37,2013-01-03 23:39:00,
2013-01-03 18:49:00,31.3,4.1,30.02,West,262,3.0,5.0,31,0.00,CLR,,0.00,WeatherDisplay:10.37,2013-01-03 23:49:00,
2013-01-03 18:59:00,31.1,3.9,30.02,WSW,254,0.0,4.0,31,0.00,CLR,,0.00,WeatherDisplay:10.37,2013-01-03 23:59:00,
2013-01-03 19:09:00,30.6,3.5,30.05,NW,310,0.0,0.0,31,0.00,CLR,,0.00,WeatherDisplay:10.37,2013-01-04 00:09:00,
2013-01-03 19:19:00,30.6,3.5,30.05,NE,44,0.0,0.0,31,0.00,CLR,,0.00,WeatherDisplay:10.37,2013-01-04 00:19:00,
2013-01-03 19:29:00,30.2,3.8,30.05,NE,53,0.0,0.0,32,0.00,CLR,,0.00,WeatherDisplay:10.37,2013-01-04 00:29:00,
2013-01-03 19:39:00,30.9,4.5,30.05,WNW,296,3.0,6.0,32,0.00,CLR,,0.00,WeatherDisplay:10.37,2013-01-04 00:39:00,
2013-01-03 19:49:00,32.7,6.1,30.05,West,277,6.0,11.0,32,0.00,CLR,,0.00,WeatherDisplay:10.37,2013-01-04 00:49:00,
2013-01-03 19:59:00,33.3,5.8,30.05,WNW,285,6.0,9.0,31,0.00,CLR,,0.00,WeatherDisplay:10.37,2013-01-04 00:59:00,
2013-01-03 20:09:00,33.4,6.0,30.05,WNW,295,7.0,9.0,31,0.00,CLR,,0.00,WeatherDisplay:10.37,2013-01-04 01:09:00,
2013-01-03 20:19:00,33.4,6.0,30.05,WNW,295,8.0,11.0,31,0.00,CLR,,0.00,WeatherDisplay:10.37,2013-01-04 01:19:00,
2013-01-03 20:29:00,33.8,5.6,30.05,NNW,327,2.0,8.0,30,0.00,CLR,,0.00,WeatherDisplay:10.37,2013-01-04 01:29:00,
2013-01-03 20:39:00,33.3,5.1,30.05,NNW,330,1.0,6.0,30,0.00,CLR,,0.00,WeatherDisplay:10.37,2013-01-04 01:39:00,
2013-01-03 20:49:00,32.8,4.7,30.05,NNW,335,3.0,6.0,30,0.00,CLR,,0.00,WeatherDisplay:10.37,2013-01-04 01:49:00,
2013-01-03 20:59:00,32.2,4.9,30.02,NNW,335,3.0,8.0,31,0.00,CLR,,0.00,WeatherDisplay:10.37,2013-01-04 01:59:00,
2013-01-03 21:09:00,32.7,5.4,30.05,West,277,2.0,8.0,31,0.00,CLR,,0.00,WeatherDisplay:10.37,2013-01-04 02:09:00,
2013-01-03 21:19:00,32.7,5.4,30.05,SW,216,2.0,9.0,31,0.00,CLR,,0.00,WeatherDisplay:10.37,2013-01-04 02:19:00,
2013-01-03 21:29:00,32.4,4.3,30.05,WNW,292,3.0,5.0,30,0.00,CLR,,0.00,WeatherDisplay:10.37,2013-01-04 02:29:00,
2013-01-03 21:39:00,32.2,4.9,30.05,NW,315,3.0,6.0,31,0.00,CLR,,0.00,WeatherDisplay:10.37,2013-01-04 02:39:00,
2013-01-03 21:49:00,31.8,4.6,30.05,NW,315,3.0,9.0,31,0.00,CLR,,0.00,WeatherDisplay:10.37,2013-01-04 02:49:00,
2013-01-03 21:59:00,32.7,5.3,30.05,WNW,284,7.0,9.0,31,0.00,CLR,,0.00,WeatherDisplay:10.37,2013-01-04 02:59:00,
2013-01-03 22:09:00,33.1,5.7,30.05,WNW,282,5.0,8.0,31,0.00,CLR,,0.00,WeatherDisplay:10.37,2013-01-04 03:09:00,
2013-01-03 22:19:00,32.6,5.3,30.05,West,276,0.0,6.0,31,0.00,CLR,,0.00,WeatherDisplay:10.37,2013-01-04 03:19:00,
2013-01-03 22:29:00,31.5,4.3,30.05,NNW,332,0.0,0.0,31,0.00,CLR,,0.00,WeatherDisplay:10.37,2013-01-04 03:29:00,
2013-01-03 22:39:00,31.2,4.0,30.05,NW,310,2.0,4.0,31,0.00,CLR,,0.00,WeatherDisplay:10.37,2013-01-04 03:39:00,
2013-01-03 22:49:00,31.3,4.8,30.05,NW,322,3.0,6.0,32,0.00,CLR,,0.00,WeatherDisplay:10.37,2013-01-04 03:49:00,
2013-01-03 22:59:00,31.6,5.7,30.05,WNW,300,3.0,6.0,33,0.00,CLR,,0.00,WeatherDisplay:10.37,2013-01-04 03:59:00,
2013-01-03 23:09:00,32.7,6.7,30.05,West,279,5.0,6.0,33,0.00,CLR,,0.00,WeatherDisplay:10.37,2013-01-04 04:09:00,
2013-01-03 23:19:00,32.1,5.5,30.05,WNW,282,2.0,5.0,32,0.00,CLR,,0.00,WeatherDisplay:10.37,2013-01-04 04:19:00,
2013-01-03 23:29:00,31.3,5.5,30.05,NW,316,3.0,6.0,33,0.00,CLR,,0.00,WeatherDisplay:10.37,2013-01-04 04:29:00,
2013-01-03 23:39:00,31.3,6.1,30.05,NW,306,0.0,8.0,34,0.00,CLR,,0.00,WeatherDisplay:10.37,2013-01-04 04:39:00,
2013-01-03 23:49:00,32.4,7.1,30.05,WNW,292,3.0,5.0,34,0.00,CLR,,0.00,WeatherDisplay:10.37,2013-01-04 04:49:00,
2013-01-03 23:59:00,32.7,7.4,30.05,WNW,295,5.0,8.0,34,0.00,CLR,,0.00,WeatherDisplay:10.37,2013-01-04 04:59:00,